Weather History for Columbus, OH

Change the Weather History Date:

Tuesday, June 25, 2013

  Actual Average Record
Temperature  
Mean Temperature 82 °F 74 °F  
Max Temperature 93 °F 84 °F 101 °F (1988)
Min Temperature 71 °F 64 °F 43 °F (1979)
Degree Days  
Heating Degree Days 0 0  
Month to date heating degree days 6 18  
Since 1 June heating degree days 6 18  
Since 1 July heating degree days 5160 5245  
Cooling Degree Days 17 9  
Month to date cooling degree days 188 168  
Year to date cooling degree days 349 250  
Since 1 June cooling degree days 188 168  
Growing Degree Days 32 (Base 50)    
Moisture  
Dew Point 68 °F    
Average Humidity 64    
Maximum Humidity 84    
Minimum Humidity 44    
Precipitation  
Precipitation 0.00 in 0.13 in 2.26 in (1882)
Month to date precipitation 3.46 3.38  
Year to date precipitation 15.93 18.95  
Snow  
Snow 0.00 in 0.00 in 0.00 in ()
Month to date snowfall 0.0 0.0  
Since 1 June snowfall 0.0 0.0  
Since 1 July snowfall 41.2 26.7  
Snow Depth 0.00 in    
Sea Level Pressure  
Sea Level Pressure 29.97 in    
Wind  
Wind Speed 11 mph (SW)    
Max Wind Speed 24 mph    
Max Gust Speed 32 mph    
Visibility 9 miles    
Events      
T = Trace of Precipitation, MM = Missing Value Source: NWS Daily Summary

Daily Weather History Graph

Daily Weather History Graph

Search for Another Location

Airport:

Trip Planner

Search our weather history database for the weather conditions in past years. The results will help you decide how hot, cold, wet, or windy it might be!

Date:

Astronomy

Jun. 25, 2013 Rise Set
Actual Time 6:04 AM EDT 9:04 PM EDT
Civil Twilight 5:31 AM EDT 9:37 PM EDT
Nautical Twilight 4:49 AM EDT 10:18 PM EDT
Astronomical Twilight 4:00 AM EDT 11:07 PM EDT
Moon 10:49 PM EDT (6/25) 8:42 AM EDT (6/25)
Length of Visible Light 16h 06m
Length of Day
15h 00m
Waning Gibbous, 93% of the Moon is Illuminated
Jun 25
Waning Gibbous
Jun 30
Last Quarter
Jul 8
New
Jul 15
First Quarter
Jul 22
Full

Hourly Weather History & Observations

Time (EDT) Temp. Heat Index Dew Point Humidity Pressure Visibility Wind Dir Wind Speed Gust Speed Precip Events Conditions
12:51 AM 75.0 °F - 68.0 °F 79% 30.06 in 10.0 mi SSW 4.6 mph - N/A   Scattered Clouds
1:51 AM 73.9 °F - 68.0 °F 82% 30.01 in 10.0 mi South 10.4 mph - N/A   Mostly Cloudy
2:51 AM 72.0 °F - 66.9 °F 84% 29.99 in 10.0 mi SSW 10.4 mph - N/A   Scattered Clouds
3:51 AM 72.0 °F - 66.0 °F 81% 30.01 in 10.0 mi Variable 6.9 mph - N/A   Partly Cloudy
4:51 AM 71.1 °F - 66.0 °F 84% 30.01 in 10.0 mi SW 10.4 mph - N/A   Partly Cloudy
5:51 AM 71.1 °F - 66.9 °F 87% 30.02 in 8.0 mi SW 6.9 mph - N/A   Mostly Cloudy
6:51 AM 71.1 °F - 66.9 °F 87% 30.03 in 5.0 mi South 4.6 mph - N/A   Mostly Cloudy
7:51 AM 72.0 °F - 66.9 °F 84% 30.04 in 6.0 mi SW 6.9 mph - N/A   Haze
8:51 AM 75.0 °F - 66.9 °F 76% 30.04 in 8.0 mi SW 6.9 mph - N/A   Mostly Cloudy
9:51 AM 79.0 °F - 66.9 °F 66% 30.03 in 10.0 mi SW 8.1 mph - N/A   Scattered Clouds
10:51 AM 82.0 °F 85.5 °F 69.1 °F 65% 30.02 in 10.0 mi SSW 8.1 mph - N/A   Scattered Clouds
11:51 AM 84.9 °F 89.4 °F 70.0 °F 61% 30.01 in 10.0 mi SSW 8.1 mph - N/A   Scattered Clouds
12:51 PM 88.0 °F 93.8 °F 71.1 °F 57% 30.00 in 10.0 mi SSW 11.5 mph 18.4 mph N/A   Scattered Clouds
1:51 PM 91.0 °F 95.6 °F 69.1 °F 48% 29.97 in 10.0 mi SW 15.0 mph - N/A   Mostly Cloudy
2:51 PM 91.0 °F 95.2 °F 68.0 °F 47% 29.95 in 10.0 mi WSW 15.0 mph 23.0 mph N/A   Mostly Cloudy
3:51 PM 91.0 °F 95.2 °F 68.0 °F 47% 29.92 in 10.0 mi SW 18.4 mph 24.2 mph N/A   Mostly Cloudy
4:51 PM 91.9 °F 95.4 °F 66.9 °F 44% 29.91 in 10.0 mi WSW 17.3 mph 26.5 mph N/A   Overcast
5:51 PM 91.0 °F 95.2 °F 68.0 °F 47% 29.87 in 10.0 mi WSW 17.3 mph 26.5 mph N/A   Mostly Cloudy
6:51 PM 91.0 °F 94.3 °F 66.9 °F 45% 29.86 in 10.0 mi WSW 17.3 mph - N/A   Mostly Cloudy
7:51 PM 88.0 °F 92.1 °F 69.1 °F 53% 29.88 in 10.0 mi SSW 11.5 mph - N/A   Scattered Clouds
8:51 PM 86.0 °F 90.7 °F 70.0 °F 59% 29.88 in 10.0 mi SSW 11.5 mph - N/A   Scattered Clouds
9:51 PM 84.9 °F 89.4 °F 70.0 °F 61% 29.88 in 10.0 mi SSW 8.1 mph - N/A   Overcast
10:51 PM 84.0 °F 89.6 °F 72.0 °F 67% 29.89 in 10.0 mi SSW 10.4 mph - N/A   Overcast
11:51 PM 82.0 °F 86.7 °F 72.0 °F 71% 29.89 in 10.0 mi SSW 10.4 mph - N/A   Overcast